Terminal Aerodrome Forecast
Issued by NWS Mobile, AL

Home | Current Version | Previous Version | Text Only | Print | Product List | Glossary On
Versions: 1 2 3 4 5 6 7 8 9 10 11 12 13 14 15 16 17 18 19 20 21 22 23 24 25
000
FTUS44 KMOB 180500
TAFMOB
TAF
KMOB 180532Z 1806/1906 00000KT P6SM SKC
     FM180900 00000KT 5SM BR SCT200
     FM181500 05004KT P6SM FEW250
     FM182000 13004KT P6SM SCT250=

USA.gov is the U.S. government's official web portal to all federal, state and local government web resources and services.